Regional Weather Roundup
Issued by NWS

Home | Current Version | Previous Version | Graphics & Text | Print | Product List | Glossary On
Versions: 1 2 3 4 5 6 7 8 9 10 11 12 13 14 15 16 17 18 19 20 21 22 23 24 25 26 27 28 29 30 31 32 33 34 35 36 37 38 39 40 41 42 43 44 45 46 47 48 49 50
000
ASUS45 KBOU 292207
RWRCO

WEATHER ROUNDUP FOR COLORADO
NATIONAL WEATHER SERVICE DENVER/BOULDER CO
400 PM MDT SAT AUG 29 2015

NOTE: "FAIR" INDICATES FEW OR NO CLOUDS BELOW 12000 FEET WITH NO
SIGNIFICANT WEATHER AND/OR OBSTRUCTIONS TO VISIBILITY.

COZ001>005-013-030-031-292300-
...NORTHWEST COLORADO...

CITY           SKY/WX    TMP DP  RH WIND       PRES   REMARKS
CRAIG          MOSUNNY   89  32  13 VRB3      30.20F
HAYDEN         NOT AVBL
MEEKER         MOSUNNY   86  33  15 VRB6      30.22F
MOUNT WERNER   NOT AVBL
STEAMBOAT SPGS MOSUNNY   82  31  15 NW6       30.26F
WALDEN         SUNNY     77  28  16 S9        30.36F
$$

COZ006>008-011-292300-
...WEST CENTRAL VALLEYS...

CITY           SKY/WX    TMP DP  RH WIND       PRES   REMARKS
GRAND JUNCTION SUNNY     89  44  20 SW8       30.11F
MONTROSE       SUNNY     89  39  17 N9        30.19F
EAGLE          MOSUNNY   84  36  17 SW14      30.25F
RIFLE          MOSUNNY   90  40  17 W9        30.16F
DELTA          SUNNY     93  34  12 E6        30.14F
NUCLA          SUNNY     90  30  12 S9G18     30.25F
$$

COZ017>023-064>068-292300-
...SOUTHWEST COLORADO...

CITY           SKY/WX    TMP DP  RH WIND       PRES   REMARKS
DURANGO        MOSUNNY   82  36  19 NW6       30.28F
CORTEZ         SUNNY     89  39  17 SW14      30.21F
PAGOSA SPRINGS MOSUNNY   79  37  21 NW5       30.36F
TELLURIDE      MOSUNNY   69  38  32 S8        30.50F
WOLF CREEK PAS PTSUNNY   57  37  47 SW15G24   30.71F
$$

COZ009-010-012-014-032>034-037-058>063-292300-
...CENTRAL COLORADO...

CITY           SKY/WX    TMP DP  RH WIND       PRES   REMARKS
ASPEN          MOSUNNY   80  40  23 CALM      30.34F
BUENA VISTA    MOSUNNY   79  33  19 S13G20    30.35F
COPPER MTN     MOSUNNY   61  34  36 W21       30.69F
BERTHOUD PASS  PTSUNNY   54  41  62 MISG      30.75F
COTTONWOOD PAS NOT AVBL
GUNNISON       MOSUNNY   81  34  18 SW10      30.36F
KREMMLING      SUNNY     84  18   8 SW9       30.31F
LEADVILLE      MOSUNNY   69  33  26 VRB6      30.50F
MONARCH PASS   PTSUNNY   63  34  34 W17G24    30.79F
SALIDA         MOSUNNY   84  36  18 S8        30.39F
SUNLIGHT       MOSUNNY   70  45  40 CALM      30.62F
WILKERSON PASS MOSUNNY   68  32  26 SW5       30.65F
$$

COZ069>075-292300-
...SAN LUIS VALLEY/SANGRE DE CRISTO MOUNTAINS...

CITY           SKY/WX    TMP DP  RH WIND       PRES   REMARKS
ALAMOSA        MOSUNNY   78  36  21 S12       30.33F
LA VETA PASS   MOSUNNY   66  37  34 NE8       30.56F
SAGUACHE       MOSUNNY   79  41  25 W5        30.38F
$$

COZ035-036-038>040-292300-
...NORTHERN COLORADO FRONT RANGE...

CITY           SKY/WX    TMP DP  RH WIND       PRES   REMARKS
DENVER INTL AP MOSUNNY   90  33  13 VRB3      30.14F
DMNS CITY PARK   N/A     89  34  14 E8        30.13F
AURORA         MOSUNNY   89  36  15 SE3       30.17F
FRONT RANGE AP MOSUNNY   90  34  13 E8G17     30.17F
ERIE MUNI ARPT SUNNY     91  31  12 CALM      30.12F
BOULDER MUN AP SUNNY     90  37  15 NE8       30.13F
CENTENNIAL     MOSUNNY   86  41  20 S8        30.18F
BROOMFIELD     MOSUNNY   90  37  15 E8        30.17F
FORT COLLINS   SUNNY     91  45  19 E12       30.09F
LONGMONT       SUNNY     93  37  14 CALM      30.13F
$$

COZ041-046-047-076>085-087-088-292300-
...PIKES PEAK/PALMER DIVIDE AND SOUTHERN FOOTHILLS...

CITY           SKY/WX    TMP DP  RH WIND       PRES   REMARKS
COLO. SPRINGS  MOSUNNY   83  42  23 S18G28    30.26F
A. F. ACADEMY  SUNNY     82  43  25 S15G23    30.26F
ELLICOTT       SUNNY    N/A N/A N/A S12       30.25F
FALCON         SUNNY     79  43  28 MISG      30.32F
FORT CARSON    SUNNY     84  45  25 SE14      30.22F
LIMON          SUNNY     83  42  23 S12G20    30.21F
MONUMENT HILL  SUNNY     77  41  27 S17G29    30.31F
TRINIDAD       SUNNY     87  36  16 VRB3      30.22F
$$

COZ042>045-048>051-090-091-292300-
...NORTHEAST COLORADO...

CITY           SKY/WX    TMP DP  RH WIND       PRES   REMARKS
GREELEY ARPT   SUNNY     91  43  18 SE13      30.11F
AKRON          SUNNY     90  38  16 S10G20    30.14F
BURLINGTON     SUNNY     87  43  21 S10G17    30.15F
WRAY           MOSUNNY   95  36  12 S9G20     30.09F
STERLING       SUNNY     91  37  15 S8        30.07F
HOLYOKE        MOSUNNY   93  52  24 S9        30.09F
FORT MORGAN    SUNNY     91  34  13 S8        30.12F
$$

COZ086-089-092>099-292300-
...SOUTHEAST COLORADO...

CITY           SKY/WX    TMP DP  RH WIND       PRES   REMARKS
PUEBLO         SUNNY     91  42  18 E12G21    30.13F
LA JUNTA       SUNNY     90  39  16 SE8       30.14F
LAMAR          SUNNY     89  44  20 E9        30.10F HAZE
SPRINGFIELD    NOT AVBL
$$



USA.gov is the U.S. government's official web portal to all federal, state and local government web resources and services.